Location: Ankeny Hill
(44.8243°N, 123.0582°W)
Time: 19:20:40
(UTC+00:00)

Daily predictions for brighter satellites

Satellite Brightness Start Highest point End
(mag) Time Altitude Azimuth Time Altitude Azimuth Time Altitude Azimuth
ATLAS 5 CENTAUR R/B 3.6 12:05:18 16° SE 12:06:31 19° ESE 12:09:28 10° ENE
PSLV R/B 4.3 12:02:38 10° NNE 12:06:55 51° E 12:07:24 49° SE
CZ-2C R/B 2.3 12:02:56 10° NNE 12:07:32 75° E 12:07:32 75° E
Milstar 3 Cent rocket 4.2 12:11:54 12° SSE 12:11:54 12° SSE 12:12:50 10° SSE
CZ-2C R/B 4.5 12:08:34 10° N 12:10:21 26° N 12:10:21 26° N
Cosmos 1386 Rocket 4.4 12:06:18 10° NNW 12:12:39 68° W 12:14:03 53° SSW
COSMOS 2487 4.0 12:16:25 32° NE 12:16:25 32° NE 12:18:29 10° NNE
NOSS 3-2 (C) 4.3 12:09:14 10° NW 12:16:45 70° NE 12:25:16 10° SE
Cosmos 2221 4.0 12:21:48 26° NNW 12:21:48 26° NNW 12:23:52 10° N
Cosmos 2322 3.9 12:14:26 10° NNW 12:20:08 69° ENE 12:25:46 10° SE
FENGYUN 3A 4.2 12:15:37 10° NNE 12:21:00 58° E 12:25:55 12° S
ARIANE 5 R/B 3.8 12:17:24 10° N 12:20:16 27° NNW 12:20:16 27° NNW
Cosmos 1805 Rocket 3.9 12:18:09 10° N 12:22:37 67° E 12:27:02 10° SSE
SeaSat 1 4.2 12:20:11 10° ESE 12:24:30 31° NE 12:28:50 10° N
CZ-4C R/B 3.0 12:23:21 25° S 12:25:46 43° ESE 12:31:07 10° NE
Meteor 2-17 Rocket 4.4 12:20:59 10° N 12:27:04 81° E 12:33:08 10° S
ATLAS 2AS CENTAUR R/B 4.3 12:21:08 10° S 12:28:08 37° ESE 12:35:08 10° NE
BREEZE-M DEB (TANK) 3.4 12:28:03 54° WNW 12:28:40 60° NNW 12:31:37 10° ENE
Landsat 5 3.3 12:26:52 10° SSE 12:30:40 76° ENE 12:34:35 10° N
ISS -2.4 12:30:59 34° NNE 12:30:59 34° NNE 12:34:04 10° E
Cosmos 1833 4.1 12:30:31 54° WSW 12:31:33 64° WNW 12:37:10 10° NNE
Cosmos 883 Rocket 4.3 12:29:18 28° SSW 12:32:40 76° W 12:38:49 10° N
Cosmos 2344 3.6 12:36:35 37° WSW 12:39:40 63° NW 12:47:38 10° NE
Cosmos 1484 Rocket 3.0 12:36:25 10° NNE 12:40:07 63° E 12:41:54 28° S
Sich 1 3.1 12:36:33 10° N 12:41:00 79° E 12:45:22 10° SSE
GPS 2-04 Rocket1 4.4 12:45:07 19° S 12:45:07 19° S 12:47:43 10° SE
Cosmos 2360 Rocket 2.8 12:46:09 35° SW 12:46:09 35° SW 12:50:11 10° S
Cosmos 1666 Rocket 4.3 12:41:59 10° N 12:46:17 54° ENE 12:50:36 10° SSE
CZ-3 R/B 4.2 12:36:22 15° SW 12:50:00 28° S 12:57:07 10° SE
Cosmos 2333 4.2 12:45:26 10° NNW 12:51:09 63° WSW 12:56:50 10° S
Cosmos 2251 Rocket 3.6 12:49:18 36° SW 12:51:16 58° WNW 12:56:36 10° NNE
Cosmos 2237 Rocket 3.9 12:46:34 10° N 12:51:44 34° NE 12:56:49 10° ESE
Geosat 3.9 12:47:55 10° NNE 12:52:59 86° WNW 12:56:16 22° SSW
USA 276 2.2 12:53:32 60° NNW 12:53:33 60° NNW 12:56:44 10° ENE
IDEFIX/ARIANE 42P 4.5 12:51:30 10° NNW 12:53:10 14° NW 12:53:10 14° NW
Cosmos 2315 Rocket 3.9 12:50:24 13° SSW 12:55:55 62° WNW 13:02:04 10° N
USA 238 DEB 3.9 12:49:50 10° NW 12:57:00 61° WSW 13:04:25 10° SSE
USA 238 3.9 12:49:56 10° NW 12:57:06 62° WSW 13:04:32 10° SSE
Cosmos 1606 3.3 12:57:47 38° WNW 12:57:47 38° WNW 13:01:08 10° N
Cosmos 614 Rocket 3.9 12:55:09 22° SSW 12:58:33 73° WNW 13:03:48 10° NNE
ATLAS 3B R/B 4.1 12:55:49 10° NNW 13:02:16 38° NE 13:08:55 10° ESE
BREEZE-M DEB (TANK) 4.0 13:05:01 15° N 13:05:04 15° N 13:06:28 10° NE
H-2A R/B 1.8 13:02:54 10° S 13:07:07 70° WSW 13:11:17 10° NNW
CZ-4B R/B 4.0 13:04:17 10° NNE 13:07:57 65° ESE 13:11:33 10° S
CZ-4B R/B 2.7 13:06:27 10° SE 13:09:22 39° ENE 13:12:15 10° N
Cosmos 2227 Rocket 4.4 13:05:43 10° SSE 13:10:19 26° ESE 13:14:57 10° NE
Cosmos 407 Rocket 3.5 13:05:13 10° SSW 13:10:24 82° ESE 13:15:34 10° NNE
Cosmos 1151 Rocket 3.1 13:06:17 10° S 13:10:34 77° E 13:14:52 10° NNE
Cosmos 2333 Rocket 2.3 13:06:11 10° NW 13:11:48 53° WSW 13:17:22 10° S
USA 267 4.3 13:06:50 10° NE 13:12:35 34° NNW 13:17:08 15° WNW
Cosmos 2074 Rocket 4.0 13:10:18 10° N 13:16:33 88° E 13:22:46 10° S
ALOS 2.6 13:12:11 10° N 13:16:38 44° WNW 13:20:25 14° SW
SKYMED 2 3.8 13:13:05 10° SSE 13:17:24 73° ENE 13:21:45 10° N
Cosmos 1633 Rocket 3.0 13:13:37 10° N 13:18:03 83° W 13:22:25 10° S
SWAS 4.5 13:14:18 10° NW 13:18:33 56° WSW 13:22:46 10° S
Cosmos 1602 3.7 13:15:56 10° N 13:19:53 87° W 13:23:47 10° S
Cosmos 1190 Rocket 4.2 13:16:06 10° SSW 13:21:24 79° ESE 13:26:44 10° NNE
Cosmos 2154 Rocket 4.5 13:16:54 10° N 13:23:07 66° E 13:29:21 10° SSE
Cosmos 2297 Rocket 3.4 13:20:08 10° S 13:25:25 43° ESE 13:30:45 10° NE
Cosmos 2219 Rocket 2.5 13:23:40 10° NW 13:29:01 45° WSW 13:34:23 10° S
Lacrosse 5 2.5 13:26:08 17° WNW 13:29:27 35° SW 13:34:00 10° SSE
Meteor 1-26 Rocket 4.2 13:25:14 10° SSW 13:30:56 78° W 13:36:53 10° N
Cosmos 1980 4.0 13:31:00 10° NNW 13:36:42 75° ENE 13:42:21 10° SSE
CENTAUR R/B 3.5 13:31:06 10° NW 13:38:55 46° WSW 13:47:15 10° S
Cosmos 1933 4.1 13:35:32 10° SW 13:39:07 31° WNW 13:42:45 10° N
Envisat 3.9 13:35:52 10° NNE 13:40:52 54° E 13:45:49 10° S
CSL-04 DEB 4.3 13:37:05 10° S 13:41:01 63° WSW 13:44:55 10° NNW
Cosmos 2184 Rocket 4.0 13:36:28 10° NNW 13:42:43 62° W 13:48:57 10° S
COSMOS 2428 3.1 13:37:33 10° NW 13:42:53 41° WSW 13:48:11 10° S
H-2A R/B 3.0 13:39:45 10° NNE 13:43:41 77° ESE 13:47:33 10° S
CZ-2C R/B 4.0 13:42:49 10° NNW 13:45:16 14° WNW 13:46:56 12° W
Cosmos 909 Rocket 4.4 13:39:28 10° WSW 13:45:45 46° NW 13:51:49 10° NNE
NOSS 0 Rocket 3.9 13:42:34 10° NNW 13:48:42 67° WSW 13:54:49 10° SSE
Cosmos 1812 3.0 13:45:01 10° S 13:48:50 72° E 13:52:40 10° NNE
RESURS DK-1 3.4 13:44:56 10° S 13:48:54 50° ESE 13:52:55 10° NE
Cosmos 1140 Rocket 3.6 13:44:32 10° SW 13:49:38 54° WNW 13:54:44 10° NNE
ATLAS 5 CENTAUR R/B 1.8 13:46:52 10° WSW 13:50:38 46° NW 13:54:59 10° NNE
Cosmos 1328 Rocket 3.7 13:46:43 10° SSW 13:50:52 47° WNW 13:55:04 10° N
Cosmos 1515 Rocket 3.5 13:47:54 10° S 13:52:14 81° W 13:56:38 10° N
Meteor 1-31 Rocket 3.3 13:48:47 10° N 13:52:22 36° WNW 13:55:53 10° SW
Cosmos 1242 Rocket 2.6 13:51:08 10° S 13:54:33 76° E 13:58:03 10° NNE
PSLV R/B 4.1 13:51:46 10° SSE 13:55:56 80° ENE 14:00:07 10° NNW
H-2A R/B 4.1 13:48:20 10° W 14:00:59 28° SSW 14:05:08 10° SSE
SeaSat 1 2.9 13:57:13 10° S 14:01:52 42° WSW 14:06:33 10° NW
Cosmos 1470 Rocket 3.7 13:57:54 10° NNW 14:02:06 48° W 14:06:15 10° SSW
ADEOS 4.1 13:57:17 10° N 14:02:07 39° WNW 14:06:55 10° SW
NOSS 3-4 (A) 3.7 13:57:54 10° WSW 14:03:35 49° NW 14:09:45 10° NNE
NOSS 3-4 (C) 3.7 13:57:59 10° WSW 14:03:41 49° NW 14:09:51 10° NNE
Cosmos 2219 3.4 13:58:34 10° SSW 14:04:14 83° ESE 14:09:54 10° NNE
COSMO-SKYMED 1 3.2 14:01:37 10° SSW 14:05:34 34° W 14:09:34 10° NNW
MOS 1 Rocket 3.8 14:02:19 10° SSW 14:06:16 32° W 14:10:25 10° NNW
SAR-Lupe-4 3.7 14:03:25 10° SSE 14:06:58 80° ENE 14:10:33 10° NNW
ISS -3.5 14:04:36 10° WNW 14:07:53 55° SW 14:11:11 10° SE
SJ-7 4.4 14:05:02 10° NNE 14:09:04 88° W 14:13:07 10° SSW
deb Chang Zheng 4 3.6 14:04:57 10° N 14:09:13 63° WNW 14:13:28 10° SSW
CZ-4B R/B 3.3 14:07:02 10° N 14:11:27 53° WNW 14:15:49 10° SSW
Timation 2 Rocket 4.3 14:06:54 10° SSW 14:13:48 90° NW 14:20:35 10° NNE
